TimeCST,TemperatureF,Dew PointF,Humidity,Sea Level PressureIn,VisibilityMPH,Wind Direction,Wind SpeedMPH,Gust SpeedMPH,PrecipitationIn,Events,Conditions,WindDirDegrees,DateUTC
12:53 AM,62.1,57.0,84,29.96,3.0,SW,3.5,-,N/A,,Haze,220,2013-02-08 06:53:00
1:53 AM,62.1,55.9,80,29.96,4.0,Calm,Calm,-,N/A,,Haze,0,2013-02-08 07:53:00
2:53 AM,62.1,55.9,80,29.97,3.0,NW,3.5,-,N/A,,Haze,310,2013-02-08 08:53:00
3:22 AM,62.6,57.2,82,29.99,2.5,Calm,Calm,-,N/A,,Haze,0,2013-02-08 09:22:00
3:53 AM,62.1,57.0,84,29.98,1.8,NW,5.8,-,N/A,,Haze,320,2013-02-08 09:53:00
4:09 AM,62.6,57.2,82,30.00,2.0,WNW,4.6,-,N/A,,Haze,300,2013-02-08 10:09:00
4:18 AM,62.6,57.2,82,30.01,1.8,WNW,5.8,-,N/A,,Haze,290,2013-02-08 10:18:00
4:41 AM,62.6,57.2,82,30.00,2.0,West,4.6,-,N/A,,Haze,280,2013-02-08 10:41:00
4:53 AM,62.1,57.0,84,29.99,2.0,West,3.5,-,N/A,,Haze,280,2013-02-08 10:53:00
5:04 AM,62.6,57.2,82,30.00,2.5,Calm,Calm,-,N/A,,Haze,0,2013-02-08 11:04:00
5:53 AM,61.0,55.9,83,29.99,2.5,SSW,3.5,-,0.01,,Haze,210,2013-02-08 11:53:00
6:53 AM,61.0,55.9,83,30.01,2.0,Calm,Calm,-,N/A,,Haze,0,2013-02-08 12:53:00
7:00 AM,60.8,55.4,82,30.03,1.5,Calm,Calm,-,N/A,,Haze,0,2013-02-08 13:00:00
7:26 AM,60.8,55.4,82,30.04,2.5,Calm,Calm,-,N/A,,Haze,0,2013-02-08 13:26:00
7:45 AM,62.6,57.2,82,30.05,3.0,Calm,Calm,-,N/A,,Haze,0,2013-02-08 13:45:00
7:53 AM,63.0,57.0,81,30.04,3.0,Calm,Calm,-,N/A,,Haze,0,2013-02-08 13:53:00
8:38 AM,62.6,57.2,82,30.07,2.5,West,3.5,-,N/A,,Haze,280,2013-02-08 14:38:00
8:51 AM,64.4,57.2,77,30.08,3.0,West,3.5,-,N/A,,Haze,280,2013-02-08 14:51:00
8:53 AM,64.0,57.9,80,30.06,3.0,West,3.5,-,N/A,,Haze,280,2013-02-08 14:53:00
9:53 AM,64.9,57.9,78,30.08,4.0,West,5.8,-,N/A,,Haze,270,2013-02-08 15:53:00
10:53 AM,64.9,59.0,81,30.09,3.0,WNW,5.8,-,N/A,,Haze,300,2013-02-08 16:53:00
11:05 AM,64.4,59.0,83,30.11,2.5,WNW,5.8,-,N/A,,Haze,300,2013-02-08 17:05:00
11:34 AM,64.4,59.0,83,30.11,3.0,West,8.1,-,N/A,,Haze,280,2013-02-08 17:34:00
11:53 AM,64.9,57.9,78,30.09,3.0,WNW,10.4,-,N/A,,Haze,290,2013-02-08 17:53:00
11:57 AM,64.4,59.0,83,30.11,2.5,WNW,10.4,-,N/A,,Haze,290,2013-02-08 17:57:00
12:05 PM,64.4,59.0,83,30.11,3.0,WNW,11.5,-,N/A,,Haze,290,2013-02-08 18:05:00
12:20 PM,64.4,59.0,83,30.10,3.0,WNW,11.5,-,N/A,,Haze,290,2013-02-08 18:20:00
12:53 PM,64.9,57.9,78,30.08,3.0,WNW,10.4,-,N/A,,Haze,290,2013-02-08 18:53:00
1:31 PM,64.4,57.2,77,30.09,5.0,WNW,10.4,-,N/A,,Haze,290,2013-02-08 19:31:00
1:44 PM,64.4,57.2,77,30.08,5.0,West,9.2,-,N/A,,Haze,280,2013-02-08 19:44:00
1:53 PM,66.0,59.0,78,30.06,5.0,West,9.2,-,N/A,,Haze,270,2013-02-08 19:53:00
2:53 PM,64.9,59.0,81,30.06,5.0,West,6.9,-,N/A,,Haze,260,2013-02-08 20:53:00
3:53 PM,66.0,59.0,78,30.05,5.0,West,6.9,-,N/A,,Haze,260,2013-02-08 21:53:00
4:53 PM,66.0,57.9,75,30.05,6.0,West,8.1,-,N/A,,Haze,270,2013-02-08 22:53:00
5:53 PM,64.9,57.9,78,30.06,6.0,WNW,9.2,-,N/A,,Haze,290,2013-02-08 23:53:00
6:53 PM,66.0,57.0,73,30.09,10.0,North,15.0,-,N/A,,Mostly Cloudy,10,2013-02-09 00:53:00
7:53 PM,64.0,54.0,70,30.12,10.0,North,19.6,-,N/A,,Overcast,10,2013-02-09 01:53:00
8:53 PM,62.1,53.1,72,30.14,10.0,North,18.4,-,N/A,,Mostly Cloudy,10,2013-02-09 02:53:00
9:53 PM,61.0,53.1,75,30.15,10.0,NNE,12.7,-,N/A,,Clear,20,2013-02-09 03:53:00
10:53 PM,61.0,52.0,72,30.15,10.0,NNE,15.0,-,N/A,,Clear,20,2013-02-09 04:53:00
11:53 PM,61.0,51.1,70,30.14,10.0,NE,19.6,-,N/A,,Partly Cloudy,40,2013-02-09 05:53:00